[新聞] 消費者報告公布「10大最可靠/不可靠車款

看板 Car
作者
時間
留言 70則留言,54人參與討論
推噓 19  ( 27推 8噓 35→ )
原文連結:https://speed.ettoday.net/amp/amp_news.php?news_id=1862394&from=amps hare-fb-fixed&fbclid=IwAR3EdOHUvgQBY68VRlUmmGtOlxEZwh8bz4610mR0bCYKRzfeg1haEje ZXVs 原文內容: 記者林鼎智/綜合報導 美國知名市調公司《消費者報告》(Consumer Reports)在公布汽車品牌可靠度調查後( 報導請點此),這次要更深入的公布10款最可靠/最不可靠車型,雖然這是以北美當地的 車輛為主,但其中也有不少車款在台販售,快來看看自己的愛車是否上榜。 必須先說的是,《消費者報告》評比車輛可靠性的項目共有17項,包括引擎、變速箱、冷 氣、油耗、底盤懸吊、煞車、影音系統等,並在各項項目後加總評分,以總評分高低排序 。其中在最可靠的10款車型中,日系車高達6名,歐系車則是2名,而美國、南韓車款則各 佔一席。 《消費者報告》10大最可靠車款: 1.Toyota Prius:93分 2.Lexus NX:91分 3.Buick Encore:91分 4.Lexus GX:90分 5.Honda HR-V:90分 6.Toyota Prius PHV:88分 7.Hyundai Kona:87分 8.Audi A5:86分 9.Audi A4:86分 10.Mazda CX-5:85分 而除了公布10名可靠性車款外,《消費者報告》也公布10大不可靠車款,其中多以休旅車 為主,而特斯拉Model S電動車也入榜: 《消費者報告》10大不可靠車款: 1.Chevrolet Silverado:13分 2.Subaru Ascent:18分 3.Volkswagen Atlas:19分 4.Jeep Compass:21分 5.Volvo XC90:26分 6.Chevrolet Colorado:26分 7.Tesla Model S:26分 8.Jeep Wrangler:27分 9.Ford EcoSport:28分 10.Volvo XC60:28分 心得/說明:(30字以上) 鄉民常說奧迪難養,但A4、A5居然雙雙上榜十大可靠車款。韓系Kona也上榜 Model S這種3C家電果然不可靠 *轉錄新聞/情報,必須附上原文及網址連結心得或意見30字(不含標點符號) --
※ 發信站: 批踢踢實業坊(ptt.cc), 來自: 36.229.162.36 (臺灣) ※ 文章網址: https://www.ptt.cc/bbs/car/M.1606441032.A.43B.html
1Fsammy98: Mazda 不是排第一 這份可信嗎?11/27 09:39
2Fneverfly: 怎麼沒有神RAV4?11/27 09:41
3Fhg32658: 奧迪很可靠!?我看我下一台就買S4來開11/27 09:52
4Fs155260: 坦克怎麼都在不可靠11/27 09:53
5Fs155260: NX上榜結果我買的是RX 哭啊11/27 09:56
6FNexus5X: 神P >>>>>>>>>>>>>>>>>> RAV411/27 09:56
7Fgtoselina: op了11/27 09:59
8Fsoqqcat: op兩次11/27 10:00
9Fluke2007: 敞篷車你幹嘴11/27 10:03
10Fbluezoo: 從二戰開始的虎式坦克就常顧路了11/27 10:03
11Fluke2007: 不過版上安全品牌 都在不可靠車11/27 10:04
12Fhito80686: Volvo有點慘啊 都是較熱銷的車款結果不可靠11/27 10:06
13Fseamask: 板上推薦的坦克竟然都不可靠11/27 10:09
14Fatom1234: 坦克是不是只能拿來防衝撞啊? (ㄟ11/27 10:12
15Fluvboa: Volvo果然不可靠,被神化過頭了。11/27 10:14
16Fbcs: volvo 車是買來撞的,撞不夠再吊起來撞11/27 10:17
17Fbakuman: 車是買來撞的 不是買來開的 妥善率是不懂車的人在11/27 10:31
18Fbakuman: 喊的 11/27 10:31
19Fz85917131: 妥善神車altis跟rav4勒11/27 10:38
20Fbenedict76: prius好強又省油11/27 10:40
21FStarburyX: 又op 我看到第三次一模一樣的文章了11/27 10:40
22Fabcd425heart: prius已經蟬聯好幾年了吧11/27 10:41
23Fyytseng: 板規來個退文吧,看到膩了11/27 10:41
24FFiesta5566: 哇 A4, A5 現在這麼可靠了11/27 10:41
25Fweop388: 至少有四篇了吧11/27 10:42
26Fbenedict76: 反正這裡就扯大電池,變頻器跟煞車總泵。11/27 10:42
27FHo1liday: 怎不高調漏水RAV4? 一直洗這個笑死11/27 10:44
28Fmmppeegg: Silverado被F-150海放了喔11/27 10:45
29Flmc66: 沒雙B pass11/27 10:56
30Fmepe1018: volvo有點慘耶~是哪一方面不可靠11/27 11:01
31Fludwig0201: xc60、90都才20多分,全不可靠吧11/27 11:06
32Fludwig0201: 吉利粉qq11/27 11:06
33Fl6333133: 特斯拉不可靠又上榜果然是拼裝3C車廠11/27 11:09
34Fdai26: 這不知道貼幾次了11/27 11:13
35Fdonnylee: volvo是不是過譽了…11/27 11:14
36FIamboy183: Volvo是怎樣了...11/27 11:25
37Fgowellplayer: 原來奧迪比我想像中的還要有料11/27 11:28
38Fhellogym: JLR完全邊緣XDDD11/27 11:36
39Farsonlolita: 民調X葉配O11/27 11:44
40Fhounter: 不可靠沒LR我懷疑買榜,新車到現在2個月上課3次了 11/27 11:48
41Frebai: 美國媒體可壟斷選舉可操控這報告呵呵11/27 12:06
42Fluke2007: 美國要操作的話 那不可靠的應該都是日本車11/27 12:14
43Fluke2007: 結果8成不可靠都是美國車?11/27 12:14
44Frrazer: Mazda第一可以po3次,這個op我就噓11/27 12:34
45Frrazer: Mazda才是最好養的啦,妥善第一, Toyota已經走下神11/27 12:35
46Ffrank8979: 這業配什麼?一次業配前十名嗎?動點腦11/27 12:35
47Frrazer: 壇了,沒錢的人最適合買Mazda11/27 12:35
48Fgeniept: 美國的Volvo是中國製還是瑞典製的啊?11/27 12:37
PO之前往前看了一下沒看到抱歉OP 但,心得應該不一樣吧? ※ 編輯: QmaxQ (39.8.162.216 臺灣), 11/27/2020 13:11:23
49FPharmarette: 豐田系油電 ecvt 行星齒輪很難壞 11/27 13:13
50FpiercingX: 在本版Audi都是開出去就爆變速箱的 報告沒可信度 11/27 13:57
51Fapps9661509: 會爆變速箱的是低配奧迪吧,死亡閃光 11/27 13:59
52FDcpp2015: 原來是美國的媒體做的,我想說不可靠居然菲亞特一 11/27 14:00
53FDcpp2015: 台都沒有上榜怎麼可能XD 11/27 14:00
54FREMEMBERYAU: 油電引擎室溫度低妥善高很正常 11/27 14:39
55Forangesky320: 改款前A4真的不錯... 11/27 14:44
56FLinerange: Mazda 10大可靠車輛只有上一台第十名,竟然是最可靠 11/27 15:00
57FLinerange: 車場第一名 11/27 15:00
58Fattraction: 因為是各車款平均下來的 所以你只要有一款車爛就GG 11/27 15:15
59Fcheetahspeed: 中國破車不意外 11/27 15:24
60Fboydoop: 都已經被刪文一篇了還PO 11/27 17:03
61Fbenedict76: 這邊不都砲轟大電池,變頻器跟煞車總泵? 11/27 17:06
62Fblackmamba24: VOLVO被中國這種作假又玻璃心的國家收購就不能買了 11/27 17:15
63Fblackmamba24: 沒有land rover跟jaguar這兩個兄弟牌也很神奇 11/27 17:17
64Fblackmamba24: 啊!銷量太低 連找到車主要上榜的資格都沒 QQ 11/27 17:18
65FLexusNo1: volvo妥善本來就很慘,吉利粉還想洗白阿xddd 11/27 19:53
66Fwondtty: 吉利XC60, XC90都上榜 11/27 20:24
67FLearnRPG: 心得不一樣可以回文或推文 一樣的新聞一直po是怎樣 11/28 08:55
68Fb131325: 家裡的A6小毛病挺多但也沒顧路或大修過,我爸叫我 11/28 17:53
69Fb131325: 不要買就是XD 11/28 17:53
70Fb131325: 怎麼板上幻想的高級可靠賓士反而沒上榜 11/28 17:54

car 最新熱門文章

15 [心得] 訂車之後
26 car 2021-01-17 00:24
24 [菜單] G06 X6菜單請益
26 car 2021-01-16 23:14
43 [情報] Sienta也有人漏水了
77 car 2021-01-16 22:54
15 [問題] Lexus 選購問題
28 car 2021-01-16 14:30
17 [問題] 人人都保第三責任險
30 car 2021-01-16 14:19
22 [新聞] 水鹿突然竄出
35 car 2021-01-16 12:26
52 [分享] Abarth 124 Spider 6MT
61 car 2021-01-16 10:27
31 三菱汽車技術力如何?
65 car 2021-01-16 00:31
34 [問車] 請問這台是什麼車
45 car 2021-01-15 21:52